Location: Rotheul
(50.2849°N, 11.2349°E)
Time: 20:46:51
(UTC+02:00)

ISS - Visible Passes

Search period start: 21 July 2017 00:00
Search period end: 31 July 2017 00:00
Orbit: 400 x 408 km, 51.6° (Epoch: 21 July)

Date Brightness Start Highest point End Pass type
(mag) Time Alt. Az. Time Alt. Az. Time Alt. Az.
21 Jul -1.9 00:29:21 19° E 00:29:21 19° E 00:30:30 10° E visible
21 Jul -3.6 02:01:57 24° W 02:03:47 71° N 02:07:03 10° ENE visible
21 Jul -3.8 03:37:07 10° WNW 03:40:24 83° NNE 03:43:41 10° ESE visible
22 Jul -3.9 01:10:46 52° W 01:11:28 83° NNW 01:14:45 10° ENE visible
22 Jul -3.6 02:44:49 10° WNW 02:48:04 71° N 02:51:20 10° E visible
22 Jul -3.6 04:21:21 10° W 04:24:31 47° SSW 04:27:39 10° SE visible
22 Jul -2.5 22:40:36 10° SSW 22:43:04 20° SE 22:45:31 10° E visible
23 Jul -4.0 00:15:55 10° WSW 00:19:10 76° SSE 00:22:26 10° ENE visible
23 Jul -3.5 01:52:29 10° W 01:55:44 66° N 01:58:58 10° E visible
23 Jul -4.0 03:29:01 10° WNW 03:32:16 68° SSW 03:35:31 10° ESE visible
23 Jul -1.9 21:49:30 10° SSE 21:50:59 13° SE 21:52:28 10° ESE visible
23 Jul -3.8 23:23:43 10° SW 23:26:54 53° SSE 23:30:05 10° ENE visible
24 Jul -3.6 01:00:07 10° W 01:03:22 68° N 01:06:38 10° E visible
24 Jul -3.9 02:36:41 10° WNW 02:39:57 89° NNW 02:43:14 10° ESE visible
24 Jul -2.9 04:13:23 10° W 04:16:11 27° SW 04:19:00 10° SSE visible
24 Jul -3.3 22:31:40 10° SW 22:34:40 35° SSE 22:37:41 10° E visible
25 Jul -3.8 00:07:44 10° W 00:11:00 78° N 00:14:16 10° ENE visible
25 Jul -3.7 01:44:21 10° WNW 01:47:37 74° N 01:50:53 10° E visible
25 Jul -3.5 03:20:54 10° W 03:24:00 40° SSW 03:27:05 10° SE visible
25 Jul -4.0 23:15:24 10° WSW 23:18:39 84° SSE 23:21:55 10° ENE visible
26 Jul -3.6 00:51:59 10° W 00:55:14 67° N 00:56:43 29° E visible
26 Jul -1.6 02:28:30 10° WNW 02:29:15 16° W 02:29:15 16° W visible
26 Jul -3.9 22:23:06 10° WSW 22:26:20 61° SSE 22:29:33 10° ENE visible
26 Jul -3.5 23:59:35 10° W 00:02:50 67° N 00:05:18 16° ENE visible
27 Jul -2.4 01:36:08 10° WNW 01:37:53 29° WNW 01:37:53 29° WNW visible
27 Jul -3.7 23:07:10 10° W 23:10:25 74° N 23:13:41 10° ENE visible
28 Jul -3.8 00:43:46 10° WNW 00:46:53 75° NNW 00:46:53 75° NNW visible
28 Jul -3.9 22:14:46 10° WSW 22:18:02 89° N 22:21:17 10° ENE visible
28 Jul -3.6 23:51:22 10° W 23:54:37 69° N 23:56:00 31° E visible
29 Jul -1.4 01:27:54 10° WNW 01:28:36 15° W 01:28:36 15° W visible
29 Jul -3.5 22:58:56 10° W 23:02:11 66° N 23:05:10 12° E visible
30 Jul -3.0 00:35:28 10° WNW 00:37:47 42° W 00:37:47 42° W visible
30 Jul -3.6 22:06:29 10° W 22:09:44 71° N 22:12:59 10° ENE visible
30 Jul -3.9 23:43:04 10° WNW 23:46:20 84° NNE 23:46:59 54° E visible
